{"data":{"norad_id":66621,"intl_designator":"2025-271E","name":"STARLINK-35847","alt_names":[],"object_type":"PAYLOAD","status":"ACTIVE","operator":null,"country":"US","launch_date":"2025-11-23","launch_site_code":"AFWTR","launch_vehicle":null,"mission":null,"orbit_class":"UNKNOWN","rcs_meters":null,"size_class":null,"mass_kg":null,"dimensions":null,"purposes":["comms"],"wikipedia_slug":null,"has_3d_model":false,"image_url":null,"decayed_at":null,"tle_current":{"epoch":"2026-05-24T17:09:10.024704Z","epoch_age_seconds":103305,"freshness":"FRESH","line1":"1 66621U 25271E   26144.71469936  .00002426  00000+0  93995-4 0  9992","line2":"2 66621  53.1564 146.9938 0001058  83.4265 276.6856 15.30209088 29208","mean_motion":15.30209088,"eccentricity":0.0001058,"inclination_deg":53.1564,"raan_deg":146.9938,"arg_perigee_deg":83.4265,"mean_anomaly_deg":276.6856,"bstar":9.3995e-5,"rev_number":2920,"period_min":94.10478680937,"perigee_km":474.46285264568,"apogee_km":475.91301620181,"semimajor_km":6853.3249344237,"source":"CELESTRAK","updated_at":"2026-05-25T13:38:21.294730Z"}}}